Regional Weather Roundup
Issued by NWS Charleston, SC

Current Version | Previous Version | Graphics & Text | Print | Product List | Glossary On
Versions: 1 2 3 4 5 6 7 8 9 10 11 12 13 14 15 16 17 18 19 20 21 22 23 24 25 26 27 28 29 30 31 32 33 34 35 36 37 38 39 40 41 42 43 44 45 46 47 48 49 50
000
ASUS42 KCHS 290510
RWRCHS

REGIONAL WEATHER ROUNDUP
NATIONAL WEATHER SERVICE CHARLESTON SC
100 AM EDT TUE JUL 29 2014

NOTE: "FAIR" INDICATES FEW OR NO CLOUDS BELOW 12,000 FEET WITH NO
SIGNIFICANT WEATHER AND/OR OBSTRUCTIONS TO VISIBILITY.

NOT ALL STATIONS ARE QUALITY CONTROLLED BY THE NATIONAL
WEATHER SERVICE. USE DATA WITH CAUTION...ESPECIALLY
DEWPOINT OBSERVATIONS.

SCZ027-030-031-034>040-042>050-290600-
...SOUTH CAROLINA...

CITY           SKY/WX    TMP DP  RH WIND       PRES   REMARKS
N CHARLESTON   PTCLDY    80  71  74 NW9       29.84S
WATERFRONT PRK   N/A     82 N/A N/A W7          N/A
FORT JOHNSON   NOT AVBL
MOUNT PLEASANT FAIR      82  72  69 NW6       29.82F
JOHNS ISLAND   PTCLDY    82  72  69 NW8       29.84S
PINOPOLIS        N/A     84  70  61 N13       29.76F
MONCKS CORNER    N/A     82  72  69 N5        29.84F
SUMMERVILLE    FAIR      73  73 100 CALM      29.86F
BEAUFORT MCAS  PTCLDY    80  72  76 N5        29.86R
BEAUFORT ARPT  MOCLDY    81  73  78 W8        29.85S
HILTON HEAD IS CLEAR     82  73  74 W6        29.87S
GEORGETOWN     NOT AVBL
WALTERBORO     PTCLDY    77  77 100 CALM      29.87S
ORANGEBURG     MOCLDY    76  64  66 NW3       29.88R
BARNWELL       FAIR      73  63  68 CALM      29.90R
AIKEN          FAIR      72  63  73 NW3       29.94S
MANNING        FAIR      73  73 100 CALM      29.86F
KINGSTREE      NOT AVBL
COLUMBIA       PTCLDY    80  58  46 N6        29.88S
SUMTER         CLEAR     77  60  56 N8        29.86S
FLORENCE       PTCLDY    77  61  57 N9        29.85F
MYRTLE BEACH   CLEAR     75  70  83 NW10      29.81F
N MYRTLE BEACH CLEAR     73  71  93 NW3       29.82F

$$

GAZ063-065-086>088-099>101-113>116-118-119-134-136>141-150-290600-
...GEORGIA...

CITY           SKY/WX    TMP DP  RH WIND       PRES   REMARKS
SAVANNAH ARPT  CLEAR     78  71  79 W6        29.87F
HUNTER AAF     CLEAR     80  72  75 W8        29.85F
FORT STEWART   MOCLDY    78  71  80 W8        29.87F
STATESBORO     NOT AVBL
SYLVANIA       CLEAR     73  73  99 CALM      29.90R
CLAXTON        FAIR      77  77 100 W3        29.89S
THOMSON        CLEAR     70  68  93 CALM      29.96F
AUGUSTA-BUSH   CLEAR     73  63  70 NW3       29.89S
AUGUSTA-DANIEL CLEAR     78  61  55 NW3       29.92R
SWAINSBORO     FAIR      75  75 100 CALM      29.92S
VIDALIA          N/A     79  72  78 NW5       29.91S
ALMA           NOT AVBL
WAYCROSS       PTCLDY    83  74  74 NW3       29.90F
JESUP          CLOUDY    82  72  69 W6        29.90S
BRUNSWICK      CLEAR     82  73  74 SW7       29.89F
SAINT SIMONS   CLEAR     83  76  79 W8        29.88F HX  91

$$

SCZ027-028-034-036>038-045-046-048>050-GAZ119-141-290600-
...LAKE AND SUPPLEMENTAL COASTAL OBSERVATIONS...

STATION/POSITION TIME  TEMP    WIND        PRES    WAVE   SWELL
                       AIR SEA DIR/SP/G            HT/PER HT/PER/DIR
                 (UTC) (F)     (DEG/KT/KT) (MB)    (FT/S) (FT/S/D)
UPR LAKE MARION  NOT AVBL
WINYAH BAY       NOT AVBL
LAKE MURRAY      0400   77     340/  2/  4 1011.9R
ACE BASIN NERRS  NOT AVBL
FORT PULASKI     0500   83     250/  7/ 11 1011.3S
SAPELO ISLAND    NOT AVBL

$$

ANZ835-935-AMZ111-154-330-350-352-354-374-450-454-472-290600-
...C-MAN AND BUOY OBSERVATIONS...

STATION/POSITION TIME  TEMP    WIND        PRES    WAVE   SWELL
                       AIR SEA DIR/SP/G            HT/PER HT/PER/DIR
                 (UTC) (F)     (DEG/KT/KT) (MB)    (FT/S) (FT/S/D)
FOLLY BEACH CMAN 0400   84     270/  6/  8 1010.5F
BUOY 41004       0500   83 84  240/ 14/ 21 1008.4F   5/ 6   2/ 8
BUOY 41008       0500   85 85  260/ 17/ 19 1011.1F   3/ 5
5E ST. MARYS GA  0500      85                N/A     2/ 2
FRYING PAN BUOY  NOT AVBL
BUOY 41025       0500          VRB  4/  6  1009.8F   4/ 7   3/170/ 7
CAPE LOOKOUT NC  0400   79     270/  5/  5 1009.9R
BUOY 41002       0445   82 81  230/ 19/ 23 1013.3R   7/ 7
BUOY 41010       0500   84 84  210/ 17/ 19 1014.4F   4/ 4   2/140/ 8
BUOY 41012       NOT AVBL
ST AUGUSTINE FL  0500   79     230/  8/ 11 1013.6F
CAPERS NEARSHORE 0400   85     300/ 12/ 14   N/A
FRIPP NEARSHORE  NOT AVBL


$$


USA.gov is the U.S. government's official web portal to all federal, state and local government web resources and services.